Погода в Старом Пинигере

Россия / Кировская область     56°12′08″N   50°56′20″E
темп.,
°C
ветер,
м/с
пор.,
м/с
влажн.,
%
обл.,
%
осадки,
мм/ч
давл.,
гПа
погр.,
м
10 мая, пн
пн1000:00+15ю266692 0.0 1015145
03:00+15юв226685 0.0 101636
06:00+16юв2667100 0.0 1018209
09:00+18вюв1258100 0.0 1019297
12:00+23ю3543100 0.0 10201500
15:00+23ю2345100 0.0 10211439
18:00+21в1152100 0.0 102211
21:00+16ссв116786 0.0 102315
11 мая, вт
вт1100:00+13ссв2287100 0.0 102442
03:00+13ссв2284100 0.0 102515
06:00+15ссв2375100 0.0 1026147
09:00+20св235389 0.0 1027533
12:00+24юв123746 0.0 10272047
15:00+24з0136100 0.0 10272043
18:00+19ссв2261100 0.0 102743
21:00+16всв11685 0.0 102811
12 мая, ср
ср1200:00+14св22692 0.0 102911
03:00+13всв11785 0.0 102911
06:00+16всв23662 0.0 1030129
09:00+22в34484 0.0 1029736
12:00+24ююв34365 0.0 10292136
15:00+25ююв34356 0.0 10282225
18:00+22ю22505 0.0 102832
21:00+17ю11535 0.0 102811
13 мая, чт
чт1300:00+16всв11574 0.0 102911
03:00+14вюв11640 0.0 102911
06:00+18вюв12580 0.0 1029105
09:00+23юв34452 0.0 1029703
12:00+25ююв45395 0.0 10282067
15:00+26ю453732 0.0 10272251
18:00+23ююз23515 0.0 102643
21:00+18ю11564 0.0 102611
14 мая, пт
пт1400:00+16юв11604 0.0 102711
03:00+15юв11635 0.0 102711
06:00+18ююв12581 0.0 1027100
09:00+24ю34455 0.0 1026754
12:00+26ююз563736 0.0 10261908
15:00+25ююз563346 0.0 10251814
18:00+22ююз35515 0.0 1024104
21:00+18ю22585 0.0 102413